Weather Service Report


165 
ASUS43 KMKX 021221
RWRWI 

WISCONSIN REGIONAL WEATHER ROUNDUP
NATIONAL WEATHER SERVICE MILWAUKEE/SULLIVAN WI
700 AM CDT WED SEP 02 2015

NOTE: "FAIR" INDICATES FEW OR NO CLOUDS BELOW 12,000 FEET WITH NO
SIGNIFICANT WEATHER AND/OR OBSTRUCTIONS TO VISIBILITY.

WIZ001-002-006>008-014>016-023>028-021300-
NORTHWEST WISCONSIN
  
CITY           SKY/WX    TMP DP  RH WIND       PRES   REMARKS
SUPERIOR ARPT  HVY RAIN  65  65  97 NW8       29.94S                  
6HR MIN TEMP:  63; 6HR MAX TEMP:  68; 6HR PCP:  0.65;                

ASHLAND        LGT RAIN  68  68 100 S3        29.96F                  
6HR MIN TEMP:  64; 6HR MAX TEMP:  69; 6HR PCP:  0.12;                

HAYWARD        TSTM      65  64  97 SW8       30.00R                  
6HR MIN TEMP:  65; 6HR MAX TEMP:  74; 6HR PCP:  1.22;                

SIREN          LGT RAIN  67  66  96 S10       30.01R                  
CUMBERLAND     CLOUDY    64  63  94 NE6       29.99S                  
RICE LAKE      CLOUDY    66  64  91 N3        30.00F                  
6HR MIN TEMP:  66; 6HR MAX TEMP:  72; 6HR PCP:  0.06;                

CHETEK         LGT RAIN N/A N/A N/A N8        29.99R                  
                                      6HR PCP:  0.11;                

LADYSMITH      CLOUDY    69  65  88 NW7       30.01R                  
6HR MIN TEMP:  69; 6HR MAX TEMP:  73;                                

EAU CLAIRE     LGT RAIN  73  70  90 CALM      29.93F                  
6HR MIN TEMP:  71; 6HR MAX TEMP:  74; 6HR PCP:  0.03;                

MENOMONIE      LGT RAIN  72  71  97 CALM      29.96R                  
NEW RICHMOND   LGT RAIN  70  69  98 NE3       29.96R                  
6HR MIN TEMP:  69; 6HR MAX TEMP:  74; 6HR PCP:  0.24;                

OSCEOLA        LGT RAIN  70  70 100 CALM      29.97S                  
6HR MIN TEMP:  70; 6HR MAX TEMP:  75; 6HR PCP:  0.18;                

$$
 
WIZ003>005-009-010-017-018-021300-
NORTH CENTRAL WISCONSIN
  
CITY           SKY/WX    TMP DP  RH WIND       PRES   REMARKS
MANITOWISH WTR TSTM      68  68 100 CALM      29.98S                  
6HR MIN TEMP:  62; 6HR MAX TEMP:  68;                                

ARBOR VITAE    CLOUDY    69  68  96 SE3       29.99S FOG              
6HR MIN TEMP:  65; 6HR MAX TEMP:  69;                                

WOODRUFF       CLOUDY    69  68  96 SE3       29.99S FOG              
6HR MIN TEMP:  65; 6HR MAX TEMP:  69;                                

RHINELANDER    FOG       67  66  97 E3        30.00F VSB 1/4          
6HR MIN TEMP:  64; 6HR MAX TEMP:  69;                                

EAGLE RIVER    CLOUDY    65  65 100 CALM      29.99F FOG              
6HR MIN TEMP:  62; 6HR MAX TEMP:  65;                                

LAND O LAKES   CLOUDY    63  63 100 CALM      30.01S FOG              
6HR MIN TEMP:  61; 6HR MAX TEMP:  63;                                

PHILLIPS       CLOUDY    68  66  92 CALM      30.01R                  
6HR MIN TEMP:  67; 6HR MAX TEMP:  71;                                

TOMAHAWK       FOG       68  67  97 CALM      29.99F VSB 3/4          
6HR MIN TEMP:  65; 6HR MAX TEMP:  70;                                

MEDFORD        CLOUDY    71  71  99 S8        30.00R FOG              
6HR MIN TEMP:  67; 6HR MAX TEMP:  71;                                

MERRILL        FOG       65  65 100 CALM      30.00S VSB 1/4          
6HR MIN TEMP:  63; 6HR MAX TEMP:  68;                                

$$
 
WIZ029-030-035-036-043>047-021300-
CENTRAL WISCONSIN
  
CITY           SKY/WX    TMP DP  RH WIND       PRES   REMARKS
WAUSAU         MOCLDY    72  71  97 S3        29.98S FOG              
6HR MIN TEMP:  70; 6HR MAX TEMP:  73;                                

MOSINEE        FOG       70  70 100 S3        30.01S VSB 1            
MARSHFIELD     FOG       71  68  90 S5        30.00R VSB<1/4          
6HR MIN TEMP:  68; 6HR MAX TEMP:  72;                                

STEVENS POINT  MOCLDY    69  69  99 CALM      30.01S FOG              
6HR MIN TEMP:  67; 6HR MAX TEMP:  70;                                

WAUPACA        FOG       72  71  97 CALM      30.00S VSB 1/4          
6HR MIN TEMP:  69; 6HR MAX TEMP:  72;                                

WAUTOMA        FOG       67  67 100 CALM      30.01S VSB<1/4          
6HR MIN TEMP:  67; 6HR MAX TEMP:  70;                                

WISC RAPIDS    MOCLDY    71  69  93 SW3       30.01S FOG              
6HR MIN TEMP:  69; 6HR MAX TEMP:  72; 6HR PCP: TRACE;                

CAMP DOUGLAS   PTCLDY    66  66 100 SE2       29.99S FOG              
$$
 
WIZ011>013-019>022-031-037>040-048>050-021300-
NORTHEAST WISCONSIN
  
CITY           SKY/WX    TMP DP  RH WIND       PRES   REMARKS
ANTIGO         FOG       65  65 100 CALM      30.02R VSB<1/4          
SHAWANO        PTCLDY    71  70  96 CALM      29.99R FOG              
6HR MIN TEMP:  71; 6HR MAX TEMP:  74;                                

OCONTO         PTCLDY    65  65 100 CALM      29.97R                  
6HR MIN TEMP:  65; 6HR MAX TEMP:  69;                                

STURGEON BAY   FAIR      72  70  94 W3        30.01R                  
6HR MIN TEMP:  72; 6HR MAX TEMP:  73;                                

GREEN BAY      FOG       70  68  93 CALM      29.99R VSB 1            
6HR MIN TEMP:  68; 6HR MAX TEMP:  73;                                

MANITOWOC      CLEAR     73  71  93 MISG      30.00R FOG              
6HR MIN TEMP:  63; 6HR MAX TEMP:  73;                                

APPLETON       MOCLDY    72  72 100 SW9       29.99R FOG              
CLINTONVILLE   FOG       66  66 100 CALM      29.99S VSB<1/4          
OSHKOSH        PTCLDY    72  69  90 SW6       30.00R FOG              
6HR MIN TEMP:  71; 6HR MAX TEMP:  74;                                

$$
 
WIZ032>034-041-042-053>061-021300-
SOUTHWEST WISCONSIN
  
CITY           SKY/WX    TMP DP  RH WIND       PRES   REMARKS
LA CROSSE      CLOUDY    74  68  81 CALM      29.96S                  
6HR MIN TEMP:  74; 6HR MAX TEMP:  77;                                

SPARTA         MOCLDY    65  63  94 CALM      29.99S                  
6HR MIN TEMP:  64; 6HR MAX TEMP:  70;                                

VIROQUA          N/A     71  70  95 S6        30.00F                  
6HR MIN TEMP:  70; 6HR MAX TEMP:  73;                                

BOSCOBEL       FOG       65  64  97 CALM      30.01R VSB<1/4          
6HR MIN TEMP:  64; 6HR MAX TEMP:  72;                                

PRAIRIE DU CHI MOCLDY    70  66  87 E3        29.99S                  
6HR MIN TEMP:  68; 6HR MAX TEMP:  77;                                

PLATTEVILLE    MOCLDY    69  68  96 SE5       30.03S                  
6HR MIN TEMP:  68; 6HR MAX TEMP:  72;                                

$$

WIZ056-057-062-063-064-067-068-021300-
SOUTH CENTRAL WISCONSIN
  
CITY           SKY/WX    TMP DP  RH WIND       PRES   REMARKS
REEDSBURG      PTCLDY    67  67 100 SE3       30.01R FOG              
6HR MIN TEMP:  66; 6HR MAX TEMP:  75;                                

BARABOO/DELLS  PTCLDY    71  67  88 CALM      30.02S                  
6HR MIN TEMP:  68; 6HR MAX TEMP:  75;                                

LONE ROCK      CLEAR     67  65  93 E3        30.02R FOG              
6HR MIN TEMP:  65; 6HR MAX TEMP:  73;                                

MINERAL POINT  CLEAR     70  68  94 SE5       30.04S FOG              
MADISON        MOCLDY    70  67  90 CALM      30.02R                  
6HR MIN TEMP:  69; 6HR MAX TEMP:  77;                                

MIDDLETON      PTCLDY    69  68  97 CALM      30.03R                  
6HR MIN TEMP:  69; 6HR MAX TEMP:  78;                                

WATERTOWN      MOCLDY    67  67 100 CALM      30.03R FOG              
6HR MIN TEMP:  65; 6HR MAX TEMP:  71;                                

MONROE         CLEAR     70  68  94 SW9       30.05R                  
JANESVILLE     CLEAR     70  68  94 CALM      30.04R FOG              
$$
 
WIZ051-052-058>065-066-070>072-021300-
SOUTHEAST WISCONSIN
  
CITY           SKY/WX    TMP DP  RH WIND       PRES   REMARKS
MILWAUKEE      PTCLDY    74  68  81 W3        30.03R                  
6HR MIN TEMP:  73; 6HR MAX TEMP:  77;                                

WAUKESHA       CLEAR     68  66  94 CALM      30.05R                  
MILWAUKEE/TIMM PTCLDY    70  64  83 SW3       30.04R                  
RACINE         PTCLDY    72  67  84 SW3       30.05R                  
6HR MIN TEMP:  70; 6HR MAX TEMP:  76;                                

BURLINGTON     MOCLDY    66  65  98 SW3       30.04R FOG              
6HR MIN TEMP:  63; 6HR MAX TEMP:  68;                                

KENOSHA        MOCLDY    71  68  90 W6        30.04R                  
6HR MIN TEMP:  71; 6HR MAX TEMP:  76;                                

FOND DU LAC    CLEAR     71  70  96 SW7       30.01R FOG              
6HR MIN TEMP:  71; 6HR MAX TEMP:  74;                                

SHEBOYGAN      CLEAR     72  70  93 SW6       30.00R FOG              
6HR MIN TEMP:  69; 6HR MAX TEMP:  73;                                

WEST BEND      CLEAR     68  66  94 CALM      30.03R                  
JUNEAU         PTCLDY    68  67  98 CALM      30.04S FOG              
6HR MIN TEMP:  67; 6HR MAX TEMP:  73; 6HR PCP:  0.08;                

$$

LSZ147-162-021300-
LAKE SUPERIOR
  
STATION/POSITION TIME  TEMP    WIND        PRES    WAVE
                       AIR SEA DIR/SP/G            HT/PER
                 (UTC) (F)     (DEG/KT/KT) (MB)    (FT/S)
W MID LAKE BUOY  1150   57 56   40/  6/  8 1014.5R   0
DEVILS ISLAND    1200   60      70/  5/  6 1014.4R
PORT WING        1100   63     220/  5/  8 1014.2
SAXON HARBOR     1140   69     220/  2/  9 1014.2R
$$
 
LMZ867-665-643>646-021300-
LAKE MICHIGAN
  
STATION/POSITION TIME  TEMP    WIND        PRES    WAVE
                       AIR SEA DIR/SP/G            HT/PER
                 (UTC) (F)     (DEG/KT/KT) (MB)    (FT/S)
CHAMBERS ISLAND  1100   68     200/  2/  3 1014.6R
S GREEN BAY BUOY 1000   69 67  220/  6/  8 1015.4

Return to Home page


Western Regional Climate Center, wrcc@dri.edu